Location: Tamazert
(32.6352°N, 5.2072°W)
Time: 03:59:15
(UTC+00:00)

Vanguard 2 Rocket - Pass Details

Date: 12 October 2022
Orbit: 555 x 3321 km, 32.9° (Epoch: 04 December)

Event Time Altitude Azimuth Distance (km) Brightness Sun altitude
Rises 22:22:39 0° 269° (W) 7,294 11.9 -55.2°
Reaches altitude 10° 22:27:46 10° 270° (W) 6,173 11.4 -56.0°
Enters shadow 22:39:59 47° 272° (W) 3,454 9.7 -57.9°
Maximum altitude 22:46:49 89° 2° (N) 2,446 - -58.8°
Drops below altitude 10° 22:58:12 10° 93° (E) 3,943 - -60.3°
Sets 23:00:43 0° 93° (E) 4,637 - -60.7°
